Location: Acequia del Cap
(41.7000°N, 0.6167°E)
Time: 01:34:22
(UTC+00:00)

CZ-2D R/B - Pass Details

Date: 07 August 2020
Orbit: 552 x 639 km, 97.9° (Epoch: 22 September)

Event Time Altitude Azimuth Distance (km) Brightness Sun altitude
Rises 03:22:38 0° 8° (N) 2,795 7.7 -16.0°
Reaches altitude 10° 03:24:50 10° 5° (N) 1,880 6.7 -15.7°
Maximum altitude 03:28:49 58° 286° (WNW) 658 3.5 -15.1°
Enters shadow 03:30:55 25° 216° (SW) 1,137 4.3 -14.8°
